| time (UTC) | temp F | wind direction | speed MPH | gust MPH | rain 1hr in | rain 24hr in | rain mn in | humidity % | barometer mb |
| 20260904071417 | 79 | 174 | 2.0 | 3.0 | 0.00 | 0.00 | 0.00 | 85 | 1013.6 |
| 20260904064414 | 80 | 205 | 0.0 | 1.0 | 0.00 | 0.00 | 0.00 | 84 | 1013.9 |
| 20260904061412 | 80 | 197 | 1.0 | 1.0 | 0.00 | 0.00 | 0.00 | 82 | 1013.7 |
| 20260904054409 | 80 | 198 | 1.0 | 1.0 | 0.00 | 0.00 | 0.00 | 80 | 1013.9 |
| 20260904051405 | 81 | 158 | 3.0 | 7.0 | 0.00 | 0.00 | 0.00 | 79 | 1013.7 |
| 20260904044406 | 81 | 199 | 3.0 | 3.0 | 0.00 | 0.00 | 0.00 | 78 | 1013.9 |
| 20260904041403 | 82 | 184 | 3.0 | 6.0 | 0.00 | 0.00 | 0.00 | 77 | 1013.9 |
| 20260904034404 | 82 | 178 | 3.0 | 5.0 | 0.00 | 0.00 | 0.00 | 74 | 1014.0 |
| 20260904031359 | 82 | 158 | 3.0 | 3.0 | 0.00 | 0.00 | 0.00 | 72 | 1013.9 |
| 20260904024359 | 83 | 119 | 1.0 | 1.0 | 0.00 | 0.00 | 0.00 | 71 | 1013.5 |
| 20260904021356 | 83 | 194 | 2.0 | 2.0 | 0.00 | 0.00 | 0.00 | 71 | 1013.0 |
| 20260904014352 | 84 | 75 | 1.0 | 1.0 | 0.00 | 0.00 | 0.00 | 75 | 1012.7 |
| 20260904011351 | 85 | 235 | 0.0 | 1.0 | 0.00 | 0.00 | 0.00 | 75 | 1012.5 |
| 20260904004349 | 86 | 157 | 3.0 | 3.0 | 0.00 | 0.00 | 0.00 | 69 | 1012.1 |
| 20260904001348 | 87 | 158 | 1.0 | 5.0 | 0.00 | 0.00 | 0.00 | 70 | 1012.0 |
| 20260903234346 | 88 | 103 | 1.0 | 2.0 | 0.00 | 0.00 | 0.00 | 68 | 1011.7 |
| 20260903231345 | 89 | 151 | 3.0 | 3.0 | 0.00 | 0.00 | 0.00 | 66 | 1011.7 |
| 20260903224343 | 91 | 185 | 1.0 | 1.0 | 0.00 | 0.00 | 0.00 | 63 | 1011.5 |
| 20260903221343 | 92 | 285 | 3.0 | 5.0 | 0.00 | 0.00 | 0.00 | 61 | 1011.3 |
| 20260903214343 | 91 | 202 | 4.0 | 6.0 | 0.00 | 0.00 | 0.00 | 64 | 1011.9 |
| 20260903211343 | 90 | 280 | 1.0 | 2.0 | 0.00 | 0.00 | 0.00 | 66 | 1012.0 |
| 20260903204341 | 90 | 187 | 1.0 | 2.0 | 0.00 | 0.00 | 0.00 | 67 | 1012.2 |
| 20260903201340 | 90 | 191 | 1.0 | 2.0 | 0.00 | 0.00 | 0.00 | 67 | 1012.5 |
| 20260903194339 | 88 | 231 | 1.0 | 2.0 | 0.00 | 0.00 | 0.00 | 70 | 1013.0 |
| 20260903191338 | 86 | 188 | 4.0 | 5.0 | 0.00 | 0.00 | 0.00 | 73 | 1013.2 |
| 20260903184336 | 86 | 168 | 3.0 | 5.0 | 0.00 | 0.00 | 0.00 | 74 | 1013.7 |
| 20260903181331 | 85 | 186 | 3.0 | 5.0 | 0.00 | 0.00 | 0.00 | 76 | 1013.9 |
| 20260903174326 | 83 | 186 | 4.0 | 6.0 | 0.00 | 0.00 | 0.00 | 79 | 1014.4 |
| 20260903171326 | 83 | 201 | 3.0 | 5.0 | 0.00 | 0.00 | 0.00 | 82 | 1014.4 |
| 20260903164326 | 84 | 205 | 2.0 | 2.0 | 0.00 | 0.00 | 0.00 | 82 | 1014.6 |
| 20260903161323 | 83 | 248 | 1.0 | 1.0 | 0.00 | 0.00 | 0.00 | 85 | 1014.2 |
| 20260903154320 | 81 | 148 | 2.0 | 3.0 | 0.00 | 0.00 | 0.00 | 88 | 1014.2 |
| 20260903151317 | 81 | 178 | 3.0 | 3.0 | 0.00 | 0.00 | 0.00 | 89 | 1014.0 |
| 20260903144314 | 81 | 213 | 2.0 | 2.0 | 0.00 | 0.00 | 0.00 | 89 | 1014.4 |
| 20260903141312 | 80 | 279 | 0.0 | 0.0 | 0.00 | 0.00 | 0.00 | 90 | 1014.2 |
| 20260903134310 | 79 | 66 | 1.0 | 1.0 | 0.00 | 0.00 | 0.00 | 91 | 1014.9 |
| 20260903131305 | 79 | 96 | 2.0 | 2.0 | 0.00 | 0.00 | 0.00 | 91 | 1014.1 |
| 20260903124301 | 79 | 280 | 0.0 | 0.0 | 0.00 | 0.00 | 0.00 | 91 | 1013.9 |
| 20260903121259 | 79 | 77 | 1.0 | 1.0 | 0.00 | 0.00 | 0.00 | 90 | 1013.9 |
| 20260903114255 | 79 | 8 | 1.0 | 1.0 | 0.00 | 0.00 | 0.00 | 90 | 1013.4 |
| 20260903111254 | 78 | 209 | 1.0 | 2.0 | 0.00 | 0.00 | 0.00 | 90 | 1013.6 |
| 20260903104253 | 78 | 164 | 1.0 | 1.0 | 0.00 | 0.00 | 0.00 | 90 | 1013.4 |
| 20260903101252 | 78 | 43 | 1.0 | 2.0 | 0.00 | 0.00 | 0.00 | 90 | 1013.4 |
| 20260903094253 | 80 | 334 | 0.0 | 0.0 | 0.00 | 0.00 | 0.00 | 84 | 1013.6 |
| 20260903091249 | 80 | 282 | 0.0 | 0.0 | 0.00 | 0.00 | 0.00 | 83 | 1013.2 |
| 20260903084248 | 80 | 152 | 2.0 | 2.0 | 0.00 | 0.00 | 0.00 | 85 | 1013.3 |
| 20260903081246 | 80 | 174 | 1.0 | 1.0 | 0.00 | 0.00 | 0.00 | 86 | 1013.1 |
| 20260903074246 | 80 | 210 | 0.0 | 1.0 | 0.00 | 0.00 | 0.00 | 86 | 1013.0 |